Time,TemperatureF,DewpointF,PressureIn,WindDirection,WindDirectionDegrees,WindSpeedMPH,WindSpeedGustMPH,Humidity,HourlyPrecipIn,Conditions,Clouds,dailyrainin,SoftwareType,DateUTC
2013-11-20 00:01:00,38.0,28.0,29.59,ENE,67,0.0,0.0,67,0.00,CLR,OVC,0.00,WeatherDisplay:10.37,2013-11-20 05:01:00,
2013-11-20 00:06:00,38.0,28.4,29.59,ESE,112,0.0,0.0,68,0.00,CLR,OVC,0.00,WeatherDisplay:10.37,2013-11-20 05:06:00,
2013-11-20 00:11:00,38.0,28.4,29.59,ENE,67,1.0,0.0,68,0.00,CLR,OVC,0.00,WeatherDisplay:10.37,2013-11-20 05:11:00,
2013-11-20 00:16:00,39.0,29.0,29.59,ESE,112,0.0,0.0,67,0.00,CLR,OVC,0.00,WeatherDisplay:10.37,2013-11-20 05:16:00,
2013-11-20 00:21:00,38.0,28.4,29.59,ENE,67,0.0,0.0,68,0.00,CLR,OVC,0.00,WeatherDisplay:10.37,2013-11-20 05:21:00,
2013-11-20 00:26:00,38.0,28.4,29.59,East,90,0.0,0.0,68,0.00,CLR,OVC,0.00,WeatherDisplay:10.37,2013-11-20 05:26:00,
2013-11-20 00:31:00,38.0,28.4,29.59,East,90,0.0,0.0,68,0.00,CLR,OVC,0.00,WeatherDisplay:10.37,2013-11-20 05:31:00,
2013-11-20 00:36:00,38.0,28.4,29.60,East,90,0.0,0.0,68,0.00,CLR,OVC,0.00,WeatherDisplay:10.37,2013-11-20 05:36:00,
2013-11-20 00:41:00,38.0,28.4,29.60,East,90,0.0,0.0,68,0.00,CLR,OVC,0.00,WeatherDisplay:10.37,2013-11-20 05:41:00,
2013-11-20 00:46:00,38.0,28.4,29.60,East,90,0.0,0.0,68,0.00,CLR,OVC,0.00,WeatherDisplay:10.37,2013-11-20 05:46:00,
2013-11-20 00:51:00,38.0,28.4,29.60,East,90,0.0,0.0,68,0.00,CLR,OVC,0.00,WeatherDisplay:10.37,2013-11-20 05:51:00,
2013-11-20 00:56:00,38.0,28.4,29.61,East,90,0.0,0.0,68,0.00,CLR,OVC,0.00,WeatherDisplay:10.37,2013-11-20 05:56:00,
2013-11-20 01:01:00,38.0,28.0,29.61,ESE,112,1.2,1.2,67,0.00,CLR,OVC,0.00,WeatherDisplay:10.37,2013-11-20 06:01:00,
2013-11-20 01:06:00,38.0,28.0,29.59,ESE,112,2.3,2.3,67,0.00,CLR,OVC,0.00,WeatherDisplay:10.37,2013-11-20 06:06:00,
2013-11-20 01:11:00,38.0,28.0,29.59,ENE,67,0.0,0.0,67,0.00,CLR,OVC,0.00,WeatherDisplay:10.37,2013-11-20 06:11:00,
2013-11-20 01:16:00,38.0,27.6,29.59,East,90,0.0,0.0,66,0.00,CLR,OVC,0.00,WeatherDisplay:10.37,2013-11-20 06:16:00,
2013-11-20 01:21:00,38.0,28.0,29.59,ENE,67,3.0,3.0,67,0.00,CLR,OVC,0.00,WeatherDisplay:10.37,2013-11-20 06:21:00,
2013-11-20 01:26:00,38.0,28.0,29.59,ESE,112,1.2,1.2,67,0.00,CLR,OVC,0.00,WeatherDisplay:10.37,2013-11-20 06:26:00,
2013-11-20 01:31:00,37.0,27.8,29.59,East,90,0.0,0.0,69,0.00,CLR,OVC,0.00,WeatherDisplay:10.37,2013-11-20 06:31:00,
2013-11-20 01:36:00,37.0,27.8,29.60,NE,45,1.2,0.0,69,0.00,CLR,OVC,0.00,WeatherDisplay:10.37,2013-11-20 06:36:00,
2013-11-20 01:41:00,37.0,27.8,29.60,ENE,67,0.0,0.0,69,0.00,CLR,OVC,0.00,WeatherDisplay:10.37,2013-11-20 06:41:00,
2013-11-20 01:46:00,37.0,27.8,29.61,NNE,22,0.0,0.0,69,0.00,CLR,OVC,0.00,WeatherDisplay:10.37,2013-11-20 06:46:00,
2013-11-20 01:51:00,37.0,28.1,29.61,ENE,67,0.0,0.0,70,0.00,CLR,OVC,0.00,WeatherDisplay:10.37,2013-11-20 06:51:00,
2013-11-20 01:56:00,37.0,27.8,29.61,ENE,67,2.3,2.3,69,0.00,CLR,OVC,0.00,WeatherDisplay:10.37,2013-11-20 06:56:00,
2013-11-20 02:01:00,37.0,27.8,29.61,NE,45,0.0,0.0,69,0.00,CLR,OVC,0.00,WeatherDisplay:10.37,2013-11-20 07:01:00,
2013-11-20 02:06:00,37.0,27.8,29.61,East,90,0.0,0.0,69,0.00,CLR,OVC,0.00,WeatherDisplay:10.37,2013-11-20 07:06:00,
2013-11-20 02:11:00,37.0,28.1,29.61,ENE,67,1.2,1.2,70,0.00,CLR,OVC,0.00,WeatherDisplay:10.37,2013-11-20 07:11:00,
2013-11-20 02:16:00,37.0,27.8,29.60,NE,45,0.0,0.0,69,0.00,CLR,OVC,0.00,WeatherDisplay:10.37,2013-11-20 07:16:00,
2013-11-20 02:21:00,37.0,27.8,29.60,NE,45,0.0,0.0,69,0.00,CLR,OVC,0.00,WeatherDisplay:10.37,2013-11-20 07:21:00,
2013-11-20 02:26:00,37.0,27.8,29.61,East,90,0.0,0.0,69,0.00,CLR,OVC,0.00,WeatherDisplay:10.37,2013-11-20 07:26:00,
2013-11-20 02:31:00,37.0,27.8,29.61,East,90,0.0,0.0,69,0.00,CLR,OVC,0.00,WeatherDisplay:10.37,2013-11-20 07:31:00,
2013-11-20 02:36:00,37.0,27.8,29.62,ENE,67,0.0,0.0,69,0.00,CLR,OVC,0.00,WeatherDisplay:10.37,2013-11-20 07:36:00,
2013-11-20 02:41:00,37.0,28.1,29.62,NE,45,0.0,0.0,70,0.00,CLR,OVC,0.00,WeatherDisplay:10.37,2013-11-20 07:41:00,
2013-11-20 02:46:00,37.0,28.1,29.61,ENE,67,0.0,0.0,70,0.00,CLR,OVC,0.00,WeatherDisplay:10.37,2013-11-20 07:46:00,
2013-11-20 02:51:00,37.0,28.1,29.61,ENE,67,0.0,0.0,70,0.00,CLR,OVC,0.00,WeatherDisplay:10.37,2013-11-20 07:51:00,
2013-11-20 02:56:00,37.0,28.1,29.62,North,360,0.0,0.0,70,0.00,CLR,OVC,0.00,WeatherDisplay:10.37,2013-11-20 07:56:00,
2013-11-20 03:01:00,36.0,27.2,29.62,NE,45,0.0,0.0,70,0.00,CLR,OVC,0.00,WeatherDisplay:10.37,2013-11-20 08:01:00,
2013-11-20 03:06:00,36.0,27.5,29.63,East,90,0.0,0.1,71,0.00,CLR,OVC,0.00,WeatherDisplay:10.37,2013-11-20 08:06:00,
2013-11-20 03:11:00,36.0,27.5,29.63,NNE,22,0.0,0.1,71,0.00,CLR,OVC,0.00,WeatherDisplay:10.37,2013-11-20 08:11:00,
2013-11-20 03:16:00,36.0,27.5,29.62,ENE,67,0.0,0.0,71,0.00,CLR,OVC,0.00,WeatherDisplay:10.37,2013-11-20 08:16:00,
2013-11-20 03:21:00,36.0,27.5,29.62,East,90,0.0,0.0,71,0.00,CLR,OVC,0.00,WeatherDisplay:10.37,2013-11-20 08:21:00,
2013-11-20 03:26:00,36.0,27.8,29.62,ENE,67,0.0,0.0,72,0.00,CLR,OVC,0.00,WeatherDisplay:10.37,2013-11-20 08:26:00,
2013-11-20 03:31:00,36.0,27.8,29.63,NE,45,0.0,0.0,72,0.00,CLR,OVC,0.00,WeatherDisplay:10.37,2013-11-20 08:31:00,
2013-11-20 03:37:00,36.0,27.8,29.63,NE,45,0.0,0.0,72,0.00,CLR,OVC,0.00,WeatherDisplay:10.37,2013-11-20 08:37:00,
2013-11-20 03:42:00,36.0,27.8,29.62,ENE,67,0.0,0.0,72,0.00,CLR,OVC,0.00,WeatherDisplay:10.37,2013-11-20 08:42:00,
2013-11-20 03:47:00,36.0,27.8,29.62,ENE,67,0.0,0.0,72,0.00,CLR,OVC,0.00,WeatherDisplay:10.37,2013-11-20 08:47:00,
2013-11-20 03:52:00,36.0,27.8,29.61,NNE,22,0.0,0.0,72,0.00,CLR,OVC,0.00,WeatherDisplay:10.37,2013-11-20 08:52:00,
2013-11-20 03:57:00,35.0,27.2,29.61,East,90,0.0,0.0,73,0.00,CLR,OVC,0.00,WeatherDisplay:10.37,2013-11-20 08:57:00,
2013-11-20 04:02:00,36.0,27.8,29.61,East,90,0.0,0.4,72,0.00,CLR,OVC,0.00,WeatherDisplay:10.37,2013-11-20 09:02:00,
2013-11-20 04:07:00,35.0,26.9,29.61,ENE,67,0.0,0.0,72,0.00,CLR,OVC,0.00,WeatherDisplay:10.37,2013-11-20 09:07:00,
2013-11-20 04:12:00,35.0,26.9,29.62,NE,45,0.0,0.0,72,0.00,CLR,OVC,0.00,WeatherDisplay:10.37,2013-11-20 09:12:00,
2013-11-20 04:17:00,35.0,27.5,29.62,NE,45,0.0,0.0,74,0.00,CLR,OVC,0.00,WeatherDisplay:10.37,2013-11-20 09:17:00,
2013-11-20 04:22:00,35.0,27.5,29.62,NE,45,0.0,0.0,74,0.00,CLR,OVC,0.00,WeatherDisplay:10.37,2013-11-20 09:22:00,
2013-11-20 04:27:00,34.0,26.9,29.62,ENE,67,0.0,0.0,75,0.00,CLR,OVC,0.00,WeatherDisplay:10.37,2013-11-20 09:27:00,
2013-11-20 04:32:00,34.0,27.2,29.63,ENE,67,0.0,0.0,76,0.00,CLR,OVC,0.00,WeatherDisplay:10.37,2013-11-20 09:32:00,
2013-11-20 04:37:00,34.0,27.2,29.63,ENE,67,0.0,0.0,76,0.00,CLR,OVC,0.00,WeatherDisplay:10.37,2013-11-20 09:37:00,
2013-11-20 04:42:00,34.0,26.9,29.63,East,90,0.0,0.0,75,0.00,CLR,OVC,0.00,WeatherDisplay:10.37,2013-11-20 09:42:00,
2013-11-20 04:47:00,34.0,27.2,29.63,ESE,112,0.0,0.0,76,0.00,CLR,OVC,0.00,WeatherDisplay:10.37,2013-11-20 09:47:00,
2013-11-20 04:52:00,34.0,27.2,29.64,ENE,67,0.0,0.0,76,0.00,CLR,OVC,0.00,WeatherDisplay:10.37,2013-11-20 09:52:00,
2013-11-20 04:57:00,34.0,27.5,29.64,ENE,67,0.0,0.0,77,0.00,CLR,OVC,0.00,WeatherDisplay:10.37,2013-11-20 09:57:00,
2013-11-20 05:02:00,34.0,27.5,29.64,ENE,67,0.0,0.0,77,0.00,CLR,OVC,0.00,WeatherDisplay:10.37,2013-11-20 10:02:00,
2013-11-20 05:07:00,33.0,26.6,29.64,ENE,67,0.0,0.0,77,0.00,CLR,OVC,0.00,WeatherDisplay:10.37,2013-11-20 10:07:00,
2013-11-20 05:12:00,33.0,26.6,29.65,NE,45,0.0,0.0,77,0.00,CLR,OVC,0.00,WeatherDisplay:10.37,2013-11-20 10:12:00,
2013-11-20 05:17:00,33.0,26.9,29.65,NE,45,0.0,0.0,78,0.00,CLR,OVC,0.00,WeatherDisplay:10.37,2013-11-20 10:17:00,
2013-11-20 05:22:00,34.0,27.5,29.65,East,90,0.0,0.0,77,0.00,CLR,OVC,0.00,WeatherDisplay:10.37,2013-11-20 10:22:00,
2013-11-20 05:27:00,33.0,26.9,29.65,East,90,0.0,0.0,78,0.00,CLR,OVC,0.00,WeatherDisplay:10.37,2013-11-20 10:27:00,
2013-11-20 05:32:00,33.0,26.9,29.65,East,90,0.0,0.0,78,0.00,CLR,OVC,0.00,WeatherDisplay:10.37,2013-11-20 10:32:00,
2013-11-20 05:37:00,33.0,27.2,29.65,ENE,67,0.0,0.0,79,0.00,CLR,OVC,0.00,WeatherDisplay:10.37,2013-11-20 10:37:00,
2013-11-20 05:42:00,33.0,27.2,29.65,NNE,22,0.0,0.0,79,0.00,CLR,OVC,0.00,WeatherDisplay:10.37,2013-11-20 10:42:00,
2013-11-20 05:47:00,33.0,27.2,29.65,ENE,67,0.0,0.0,79,0.00,CLR,OVC,0.00,WeatherDisplay:10.37,2013-11-20 10:47:00,
2013-11-20 05:52:00,33.0,27.2,29.64,ENE,67,0.0,0.0,79,0.00,CLR,OVC,0.00,WeatherDisplay:10.37,2013-11-20 10:52:00,
2013-11-20 05:57:00,33.0,27.5,29.64,ENE,67,0.0,0.0,80,0.00,CLR,OVC,0.00,WeatherDisplay:10.37,2013-11-20 10:57:00,
2013-11-20 06:02:00,33.0,27.5,29.64,ENE,67,0.0,0.0,80,0.00,CLR,OVC,0.00,WeatherDisplay:10.37,2013-11-20 11:02:00,
2013-11-20 06:07:00,33.0,27.5,29.64,ESE,112,0.0,0.0,80,0.00,CLR,OVC,0.00,WeatherDisplay:10.37,2013-11-20 11:07:00,
2013-11-20 06:12:00,33.0,27.2,29.65,ENE,67,1.2,1.2,79,0.00,CLR,OVC,0.00,WeatherDisplay:10.37,2013-11-20 11:12:00,
2013-11-20 06:17:00,33.0,27.5,29.65,NE,45,1.2,1.2,80,0.00,CLR,OVC,0.00,WeatherDisplay:10.37,2013-11-20 11:17:00,
2013-11-20 06:22:00,33.0,27.2,29.66,NE,45,0.0,0.0,79,0.00,CLR,OVC,0.00,WeatherDisplay:10.37,2013-11-20 11:22:00,
2013-11-20 06:27:00,33.0,27.5,29.66,ESE,112,0.0,0.0,80,0.00,CLR,OVC,0.00,WeatherDisplay:10.37,2013-11-20 11:27:00,
2013-11-20 06:32:00,33.0,27.5,29.66,ENE,67,0.0,0.0,80,0.00,CLR,OVC,0.00,WeatherDisplay:10.37,2013-11-20 11:32:00,
2013-11-20 06:37:00,33.0,27.8,29.66,East,90,0.0,0.0,81,0.00,CLR,OVC,0.00,WeatherDisplay:10.37,2013-11-20 11:37:00,
2013-11-20 06:42:00,33.0,27.5,29.67,NE,45,0.0,0.0,80,0.00,CLR,OVC,0.00,WeatherDisplay:10.37,2013-11-20 11:42:00,
2013-11-20 06:47:00,33.0,27.8,29.67,ENE,67,0.0,0.0,81,0.00,CLR,OVC,0.00,WeatherDisplay:10.37,2013-11-20 11:47:00,
2013-11-20 06:52:00,33.0,27.5,29.67,ENE,67,0.0,0.0,80,0.00,CLR,OVC,0.00,WeatherDisplay:10.37,2013-11-20 11:52:00,
2013-11-20 06:57:00,33.0,27.8,29.67,NNE,22,0.0,0.0,81,0.00,CLR,OVC,0.00,WeatherDisplay:10.37,2013-11-20 11:57:00,
2013-11-20 07:02:00,33.0,27.8,29.67,North,360,0.0,0.0,81,0.00,CLR,OVC,0.00,WeatherDisplay:10.37,2013-11-20 12:02:00,
2013-11-20 07:07:00,33.0,27.8,29.67,ENE,67,1.2,0.0,81,0.00,CLR,OVC,0.00,WeatherDisplay:10.37,2013-11-20 12:07:00,
2013-11-20 07:12:00,33.0,27.8,29.69,ENE,67,1.2,1.2,81,0.00,CLR,OVC,0.00,WeatherDisplay:10.37,2013-11-20 12:12:00,
2013-11-20 07:17:00,33.0,27.8,29.69,ENE,67,0.0,0.0,81,0.00,CLR,OVC,0.00,WeatherDisplay:10.37,2013-11-20 12:17:00,
2013-11-20 07:22:00,33.0,28.1,29.69,ENE,67,0.0,0.0,82,0.00,CLR,OVC,0.00,WeatherDisplay:10.37,2013-11-20 12:22:00,
2013-11-20 07:27:00,33.0,28.1,29.69,ESE,112,0.0,0.0,82,0.00,CLR,OVC,0.00,WeatherDisplay:10.37,2013-11-20 12:27:00,
2013-11-20 07:32:00,33.0,28.1,29.69,ENE,67,0.0,0.0,82,0.00,CLR,OVC,0.00,WeatherDisplay:10.37,2013-11-20 12:32:00,
2013-11-20 07:37:00,33.0,28.4,29.69,ENE,67,0.0,0.0,83,0.00,CLR,OVC,0.00,WeatherDisplay:10.37,2013-11-20 12:37:00,
2013-11-20 07:42:00,33.0,28.1,29.69,ENE,67,0.0,0.0,82,0.00,CLR,OVC,0.00,WeatherDisplay:10.37,2013-11-20 12:42:00,
2013-11-20 07:47:00,33.0,28.1,29.69,ENE,67,0.0,0.0,82,0.00,CLR,OVC,0.00,WeatherDisplay:10.37,2013-11-20 12:47:00,
2013-11-20 07:52:00,34.0,29.1,29.69,ENE,67,0.0,0.0,82,0.00,CLR,OVC,0.00,WeatherDisplay:10.37,2013-11-20 12:52:00,
2013-11-20 07:57:00,34.0,29.1,29.69,NE,45,0.0,0.0,82,0.00,CLR,OVC,0.00,WeatherDisplay:10.37,2013-11-20 12:57:00,
2013-11-20 08:02:00,34.0,29.1,29.70,NNE,22,0.0,0.0,82,0.00,CLR,OVC,0.00,WeatherDisplay:10.37,2013-11-20 13:02:00,
2013-11-20 08:07:00,34.0,29.1,29.70,East,90,0.0,0.1,82,0.00,CLR,OVC,0.00,WeatherDisplay:10.37,2013-11-20 13:07:00,
2013-11-20 08:12:00,35.0,29.8,29.69,ENE,67,0.0,0.0,81,0.00,CLR,OVC,0.00,WeatherDisplay:10.37,2013-11-20 13:12:00,
2013-11-20 08:17:00,35.0,29.5,29.69,North,360,1.2,0.0,80,0.00,CLR,OVC,0.00,WeatherDisplay:10.37,2013-11-20 13:17:00,
2013-11-20 08:22:00,35.0,28.8,29.70,NNE,22,0.0,0.1,78,0.00,CLR,OVC,0.00,WeatherDisplay:10.37,2013-11-20 13:22:00,
2013-11-20 08:27:00,36.0,29.8,29.70,ENE,67,1.2,1.2,78,0.00,CLR,OVC,0.00,WeatherDisplay:10.37,2013-11-20 13:27:00,
2013-11-20 08:32:00,37.0,29.5,29.70,ENE,67,1.2,1.2,74,0.00,CLR,OVC,0.00,WeatherDisplay:10.37,2013-11-20 13:32:00,
2013-11-20 08:37:00,38.0,29.4,29.70,ENE,67,1.2,1.2,71,0.00,CLR,OVC,0.00,WeatherDisplay:10.37,2013-11-20 13:37:00,
2013-11-20 08:42:00,39.0,29.7,29.71,East,90,0.0,0.2,69,0.00,CLR,OVC,0.00,WeatherDisplay:10.37,2013-11-20 13:42:00,
2013-11-20 08:47:00,39.0,29.0,29.71,ESE,112,6.0,6.0,67,0.00,CLR,OVC,0.00,WeatherDisplay:10.37,2013-11-20 13:47:00,
2013-11-20 08:52:00,40.0,29.6,29.71,East,90,4.0,4.0,66,0.00,CLR,OVC,0.00,WeatherDisplay:10.37,2013-11-20 13:52:00,
2013-11-20 08:57:00,40.0,29.2,29.71,NNW,337,3.5,3.5,65,0.00,CLR,OVC,0.00,WeatherDisplay:10.37,2013-11-20 13:57:00,
2013-11-20 09:02:00,41.0,29.4,29.71,NNE,22,0.0,0.0,63,0.00,CLR,OVC,0.00,WeatherDisplay:10.37,2013-11-20 14:02:00,
2013-11-20 09:07:00,41.0,29.0,29.71,ESE,112,1.2,1.2,62,0.00,CLR,OVC,0.00,WeatherDisplay:10.37,2013-11-20 14:07:00,
2013-11-20 09:13:00,42.0,29.5,29.71,East,90,1.2,1.2,61,0.00,CLR,OVC,0.00,WeatherDisplay:10.37,2013-11-20 14:13:00,
2013-11-20 09:18:00,42.0,29.5,29.71,SE,135,4.6,4.6,61,0.00,CLR,OVC,0.00,WeatherDisplay:10.37,2013-11-20 14:18:00,
2013-11-20 09:23:00,42.0,29.1,29.71,ESE,112,2.3,2.3,60,0.00,CLR,OVC,0.00,WeatherDisplay:10.37,2013-11-20 14:23:00,
2013-11-20 09:28:00,42.0,28.7,29.71,ESE,112,4.0,4.0,59,0.00,CLR,OVC,0.00,WeatherDisplay:10.37,2013-11-20 14:28:00,
2013-11-20 09:33:00,42.0,28.7,29.71,NNW,337,1.2,1.2,59,0.00,CLR,OVC,0.00,WeatherDisplay:10.37,2013-11-20 14:33:00,
2013-11-20 09:38:00,42.0,28.7,29.71,East,90,2.0,0.0,59,0.00,CLR,OVC,0.00,WeatherDisplay:10.37,2013-11-20 14:38:00,
2013-11-20 09:43:00,43.0,28.8,29.71,NNW,337,3.0,3.0,57,0.00,CLR,OVC,0.00,WeatherDisplay:10.37,2013-11-20 14:43:00,
2013-11-20 09:48:00,43.0,28.8,29.71,ESE,112,1.2,1.9,57,0.00,CLR,OVC,0.00,WeatherDisplay:10.37,2013-11-20 14:48:00,
2013-11-20 09:53:00,44.0,29.7,29.72,ESE,112,1.2,1.2,57,0.00,CLR,OVC,0.00,WeatherDisplay:10.37,2013-11-20 14:53:00,
2013-11-20 09:58:00,44.0,29.7,29.72,ENE,67,3.5,3.5,57,0.00,CLR,OVC,0.00,WeatherDisplay:10.37,2013-11-20 14:58:00,
2013-11-20 10:03:00,44.0,29.7,29.72,SE,135,1.2,1.2,57,0.00,CLR,OVC,0.00,WeatherDisplay:10.37,2013-11-20 15:03:00,
2013-11-20 10:08:00,44.0,30.2,29.72,ESE,112,1.2,1.2,58,0.00,CLR,OVC,0.00,WeatherDisplay:10.37,2013-11-20 15:08:00,
2013-11-20 10:13:00,45.0,29.8,29.71,East,90,0.0,0.0,55,0.00,CLR,OVC,0.00,WeatherDisplay:10.37,2013-11-20 15:13:00,
2013-11-20 10:18:00,45.0,29.8,29.71,ESE,112,3.5,3.5,55,0.00,CLR,OVC,0.00,WeatherDisplay:10.37,2013-11-20 15:18:00,
2013-11-20 10:23:00,46.0,30.3,29.71,East,90,3.5,3.5,54,0.00,CLR,OVC,0.00,WeatherDisplay:10.37,2013-11-20 15:23:00,
2013-11-20 10:28:00,46.0,29.8,29.71,SE,135,1.2,0.0,53,0.00,CLR,OVC,0.00,WeatherDisplay:10.37,2013-11-20 15:28:00,
2013-11-20 10:33:00,46.0,29.8,29.71,East,90,3.5,3.5,53,0.00,CLR,OVC,0.00,WeatherDisplay:10.37,2013-11-20 15:33:00,
2013-11-20 10:38:00,46.0,29.3,29.71,WSW,247,3.5,3.5,52,0.00,CLR,OVC,0.00,WeatherDisplay:10.37,2013-11-20 15:38:00,
2013-11-20 10:43:00,46.0,29.3,29.71,ESE,112,1.2,1.2,52,0.00,CLR,OVC,0.00,WeatherDisplay:10.37,2013-11-20 15:43:00,
2013-11-20 10:48:00,47.0,29.8,29.71,ESE,112,3.5,3.5,51,0.00,CLR,OVC,0.00,WeatherDisplay:10.37,2013-11-20 15:48:00,
2013-11-20 10:53:00,47.0,29.8,29.71,NNE,22,1.2,1.2,51,0.00,CLR,OVC,0.00,WeatherDisplay:10.37,2013-11-20 15:53:00,
2013-11-20 10:58:00,47.0,29.3,29.71,ENE,67,1.2,1.2,50,0.00,CLR,OVC,0.00,WeatherDisplay:10.37,2013-11-20 15:58:00,
2013-11-20 11:03:00,47.0,29.3,29.70,SE,135,1.2,1.2,50,0.00,CLR,OVC,0.00,WeatherDisplay:10.37,2013-11-20 16:03:00,
2013-11-20 11:08:00,48.0,30.2,29.70,NNE,22,1.2,1.2,50,0.00,CLR,OVC,0.00,WeatherDisplay:10.37,2013-11-20 16:08:00,
2013-11-20 11:13:00,48.0,30.2,29.69,ESE,112,2.0,2.0,50,0.00,CLR,OVC,0.00,WeatherDisplay:10.37,2013-11-20 16:13:00,
2013-11-20 11:18:00,47.0,29.3,29.69,ESE,112,4.6,4.6,50,0.00,CLR,OVC,0.00,WeatherDisplay:10.37,2013-11-20 16:18:00,
2013-11-20 11:23:00,47.0,30.3,29.69,ESE,112,5.8,5.8,52,0.00,CLR,OVC,0.00,WeatherDisplay:10.37,2013-11-20 16:23:00,
2013-11-20 11:28:00,48.0,30.2,29.69,North,360,2.3,2.3,50,0.00,CLR,OVC,0.00,WeatherDisplay:10.37,2013-11-20 16:28:00,
2013-11-20 11:33:00,49.0,31.2,29.69,ESE,112,2.3,0.0,50,0.00,CLR,OVC,0.00,WeatherDisplay:10.37,2013-11-20 16:33:00,
2013-11-20 11:38:00,48.0,30.2,29.69,SE,135,2.3,0.0,50,0.00,CLR,OVC,0.00,WeatherDisplay:10.37,2013-11-20 16:38:00,
2013-11-20 11:43:00,50.0,31.1,29.69,ENE,67,2.3,0.0,48,0.00,CLR,OVC,0.00,WeatherDisplay:10.37,2013-11-20 16:43:00,
2013-11-20 11:48:00,50.0,31.1,29.69,North,360,0.0,0.0,48,0.00,CLR,OVC,0.00,WeatherDisplay:10.37,2013-11-20 16:48:00,
2013-11-20 11:53:00,51.0,31.5,29.68,ESE,112,2.3,2.3,47,0.00,CLR,OVC,0.00,WeatherDisplay:10.37,2013-11-20 16:53:00,
2013-11-20 11:58:00,51.0,32.0,29.68,NNE,22,0.0,0.0,48,0.00,CLR,OVC,0.00,WeatherDisplay:10.37,2013-11-20 16:58:00,
2013-11-20 12:03:00,50.0,31.1,29.68,NNW,337,1.2,1.2,48,0.00,CLR,OVC,0.00,WeatherDisplay:10.37,2013-11-20 17:03:00,
2013-11-20 12:08:00,51.0,32.0,29.68,SSE,157,1.2,1.2,48,0.00,CLR,OVC,0.00,WeatherDisplay:10.37,2013-11-20 17:08:00,
2013-11-20 12:14:00,51.0,30.9,29.68,East,90,1.2,1.2,46,0.00,CLR,OVC,0.00,WeatherDisplay:10.37,2013-11-20 17:14:00,
2013-11-20 12:19:00,50.0,31.1,29.68,ESE,112,3.5,3.5,48,0.00,CLR,OVC,0.00,WeatherDisplay:10.37,2013-11-20 17:19:00,
2013-11-20 12:24:00,49.0,30.7,29.68,ESE,112,3.5,3.5,49,0.00,CLR,OVC,0.00,WeatherDisplay:10.37,2013-11-20 17:24:00,
2013-11-20 12:29:00,50.0,31.1,29.68,East,90,0.0,0.0,48,0.00,CLR,OVC,0.00,WeatherDisplay:10.37,2013-11-20 17:29:00,
2013-11-20 12:34:00,49.0,30.1,29.68,NNW,337,1.2,0.0,48,0.00,CLR,OVC,0.00,WeatherDisplay:10.37,2013-11-20 17:34:00,
2013-11-20 12:39:00,49.0,31.2,29.68,East,90,1.2,0.0,50,0.00,CLR,OVC,0.00,WeatherDisplay:10.37,2013-11-20 17:39:00,
2013-11-20 12:44:00,51.0,32.0,29.67,North,360,0.0,0.0,48,0.00,CLR,OVC,0.00,WeatherDisplay:10.37,2013-11-20 17:44:00,
2013-11-20 12:49:00,52.0,32.9,29.67,North,360,2.3,0.0,48,0.00,CLR,OVC,0.00,WeatherDisplay:10.37,2013-11-20 17:49:00,
2013-11-20 12:54:00,53.0,32.8,29.66,East,90,0.0,0.4,46,0.00,CLR,OVC,0.00,WeatherDisplay:10.37,2013-11-20 17:54:00,
2013-11-20 12:59:00,52.0,32.9,29.66,NE,45,1.2,0.0,48,0.00,CLR,OVC,0.00,WeatherDisplay:10.37,2013-11-20 17:59:00,
2013-11-20 13:04:00,51.0,30.9,29.67,ESE,112,2.3,2.3,46,0.00,CLR,OVC,0.00,WeatherDisplay:10.37,2013-11-20 18:04:00,
2013-11-20 13:09:00,52.0,31.8,29.67,SE,135,1.2,1.2,46,0.00,CLR,OVC,0.00,WeatherDisplay:10.37,2013-11-20 18:09:00,
2013-11-20 13:14:00,52.0,31.8,29.67,NNE,22,0.0,0.0,46,0.00,CLR,OVC,0.00,WeatherDisplay:10.37,2013-11-20 18:14:00,
2013-11-20 13:19:00,52.0,31.8,29.67,NE,45,3.5,3.5,46,0.00,CLR,OVC,0.00,WeatherDisplay:10.37,2013-11-20 18:19:00,
2013-11-20 13:24:00,51.0,30.9,29.67,ESE,112,3.5,3.5,46,0.00,CLR,OVC,0.00,WeatherDisplay:10.37,2013-11-20 18:24:00,
2013-11-20 13:29:00,50.0,31.1,29.67,ESE,112,4.6,4.6,48,0.00,CLR,OVC,0.00,WeatherDisplay:10.37,2013-11-20 18:29:00,
2013-11-20 13:34:00,50.0,31.1,29.67,SE,135,3.5,3.5,48,0.00,CLR,OVC,0.00,WeatherDisplay:10.37,2013-11-20 18:34:00,
2013-11-20 13:39:00,50.0,31.1,29.67,ESE,112,3.5,3.5,48,0.00,CLR,OVC,0.00,WeatherDisplay:10.37,2013-11-20 18:39:00,
2013-11-20 13:44:00,49.0,31.2,29.67,SSE,157,2.3,2.3,50,0.00,CLR,OVC,0.00,WeatherDisplay:10.37,2013-11-20 18:44:00,
2013-11-20 13:49:00,49.0,31.6,29.67,ESE,112,2.3,2.3,51,0.00,CLR,OVC,0.00,WeatherDisplay:10.37,2013-11-20 18:49:00,
2013-11-20 13:54:00,49.0,31.2,29.66,East,90,1.2,1.2,50,0.00,CLR,OVC,0.00,WeatherDisplay:10.37,2013-11-20 18:54:00,
2013-11-20 13:59:00,49.0,31.2,29.66,SE,135,2.0,2.0,50,0.00,CLR,OVC,0.00,WeatherDisplay:10.37,2013-11-20 18:59:00,
2013-11-20 14:04:00,49.0,31.2,29.65,NE,45,0.0,0.0,50,0.00,CLR,OVC,0.00,WeatherDisplay:10.37,2013-11-20 19:04:00,
2013-11-20 14:09:00,49.0,31.2,29.65,ENE,67,0.0,0.0,50,0.00,CLR,OVC,0.00,WeatherDisplay:10.37,2013-11-20 19:09:00,
2013-11-20 14:14:00,50.0,31.6,29.65,East,90,2.3,2.3,49,0.00,CLR,OVC,0.00,WeatherDisplay:10.37,2013-11-20 19:14:00,
2013-11-20 14:19:00,50.0,32.1,29.65,ESE,112,0.0,0.0,50,0.00,CLR,OVC,0.00,WeatherDisplay:10.37,2013-11-20 19:19:00,
2013-11-20 14:24:00,50.0,31.6,29.65,South,180,1.2,1.2,49,0.00,CLR,OVC,0.00,WeatherDisplay:10.37,2013-11-20 19:24:00,
2013-11-20 14:29:00,49.0,31.2,29.65,East,90,0.0,0.0,50,0.00,CLR,OVC,0.00,WeatherDisplay:10.37,2013-11-20 19:29:00,
2013-11-20 14:34:00,50.0,31.6,29.65,SE,135,1.2,0.0,49,0.00,CLR,OVC,0.00,WeatherDisplay:10.37,2013-11-20 19:34:00,
2013-11-20 14:39:00,50.0,31.6,29.65,ESE,112,0.0,0.0,49,0.00,CLR,OVC,0.00,WeatherDisplay:10.37,2013-11-20 19:39:00,
2013-11-20 14:44:00,49.0,31.2,29.65,ESE,112,1.2,1.2,50,0.00,CLR,OVC,0.00,WeatherDisplay:10.37,2013-11-20 19:44:00,
2013-11-20 14:49:00,49.0,31.2,29.65,East,90,1.2,1.2,50,0.00,CLR,OVC,0.00,WeatherDisplay:10.37,2013-11-20 19:49:00,
2013-11-20 14:54:00,49.0,31.2,29.66,SE,135,2.3,2.3,50,0.00,CLR,OVC,0.00,WeatherDisplay:10.37,2013-11-20 19:54:00,
2013-11-20 14:59:00,49.0,31.2,29.66,ESE,112,4.6,4.6,50,0.00,CLR,OVC,0.00,WeatherDisplay:10.37,2013-11-20 19:59:00,
2013-11-20 15:04:00,49.0,32.1,29.66,NE,45,1.2,0.0,52,0.00,CLR,OVC,0.00,WeatherDisplay:10.37,2013-11-20 20:04:00,
2013-11-20 15:09:00,49.0,31.6,29.66,NNE,22,1.2,1.2,51,0.00,CLR,OVC,0.00,WeatherDisplay:10.37,2013-11-20 20:09:00,
2013-11-20 15:14:00,49.0,31.6,29.66,ENE,67,0.0,0.0,51,0.00,CLR,OVC,0.00,WeatherDisplay:10.37,2013-11-20 20:14:00,
2013-11-20 15:19:00,49.0,32.1,29.66,SE,135,2.3,2.3,52,0.00,CLR,OVC,0.00,WeatherDisplay:10.37,2013-11-20 20:19:00,
2013-11-20 15:24:00,48.0,31.2,29.66,ESE,112,2.3,2.3,52,0.00,CLR,OVC,0.00,WeatherDisplay:10.37,2013-11-20 20:24:00,
2013-11-20 15:29:00,48.0,31.2,29.66,ESE,112,3.5,3.5,52,0.00,CLR,OVC,0.00,WeatherDisplay:10.37,2013-11-20 20:29:00,
2013-11-20 15:34:00,48.0,31.7,29.66,ENE,67,0.0,0.0,53,0.00,CLR,OVC,0.00,WeatherDisplay:10.37,2013-11-20 20:34:00,
2013-11-20 15:39:00,48.0,31.7,29.66,ESE,112,1.2,1.2,53,0.00,CLR,OVC,0.00,WeatherDisplay:10.37,2013-11-20 20:39:00,
2013-11-20 15:44:00,48.0,31.7,29.66,East,90,1.2,0.0,53,0.00,CLR,OVC,0.00,WeatherDisplay:10.37,2013-11-20 20:44:00,
2013-11-20 15:49:00,48.0,32.1,29.66,East,90,0.0,0.0,54,0.00,CLR,OVC,0.00,WeatherDisplay:10.37,2013-11-20 20:49:00,
2013-11-20 15:54:00,47.0,31.7,29.66,NE,45,1.2,1.2,55,0.00,CLR,OVC,0.00,WeatherDisplay:10.37,2013-11-20 20:54:00,
2013-11-20 15:59:00,48.0,32.6,29.66,ENE,67,1.2,1.2,55,0.00,CLR,OVC,0.00,WeatherDisplay:10.37,2013-11-20 20:59:00,
2013-11-20 16:04:00,48.0,32.6,29.66,ESE,112,2.3,0.0,55,0.00,CLR,OVC,0.00,WeatherDisplay:10.37,2013-11-20 21:04:00,
2013-11-20 16:09:00,48.0,32.6,29.66,NNE,22,0.0,0.0,55,0.00,CLR,OVC,0.00,WeatherDisplay:10.37,2013-11-20 21:09:00,
2013-11-20 16:14:00,48.0,32.6,29.66,ENE,67,0.0,0.0,55,0.00,CLR,OVC,0.00,WeatherDisplay:10.37,2013-11-20 21:14:00,
2013-11-20 16:19:00,47.0,31.7,29.66,ESE,112,0.0,0.0,55,0.00,CLR,OVC,0.00,WeatherDisplay:10.37,2013-11-20 21:19:00,
2013-11-20 16:24:00,47.0,32.5,29.67,East,90,1.2,0.0,57,0.00,CLR,OVC,0.00,WeatherDisplay:10.37,2013-11-20 21:24:00,
2013-11-20 16:29:00,46.0,31.6,29.67,East,90,0.0,0.0,57,0.00,CLR,OVC,0.00,WeatherDisplay:10.37,2013-11-20 21:29:00,
2013-11-20 16:34:00,46.0,32.0,29.67,ESE,112,1.2,1.2,58,0.00,CLR,OVC,0.00,WeatherDisplay:10.37,2013-11-20 21:34:00,
2013-11-20 16:39:00,46.0,32.0,29.67,ENE,67,0.0,0.0,58,0.00,CLR,OVC,0.00,WeatherDisplay:10.37,2013-11-20 21:39:00,
2013-11-20 16:44:00,46.0,32.0,29.67,ESE,112,0.0,0.0,58,0.00,CLR,OVC,0.00,WeatherDisplay:10.37,2013-11-20 21:44:00,
2013-11-20 16:49:00,46.0,32.0,29.67,ESE,112,0.0,0.0,58,0.00,CLR,OVC,0.00,WeatherDisplay:10.37,2013-11-20 21:49:00,
2013-11-20 16:54:00,45.0,31.5,29.67,ESE,112,0.0,0.0,59,0.00,CLR,OVC,0.00,WeatherDisplay:10.37,2013-11-20 21:54:00,
2013-11-20 16:59:00,45.0,31.9,29.67,ESE,112,0.0,0.0,60,0.00,CLR,OVC,0.00,WeatherDisplay:10.37,2013-11-20 21:59:00,
2013-11-20 17:04:00,45.0,31.9,29.68,ENE,67,0.0,0.0,60,0.00,CLR,OVC,0.00,WeatherDisplay:10.37,2013-11-20 22:04:00,
2013-11-20 17:09:00,45.0,32.3,29.68,East,90,1.2,0.0,61,0.00,CLR,OVC,0.00,WeatherDisplay:10.37,2013-11-20 22:09:00,
2013-11-20 17:14:00,45.0,31.9,29.67,East,90,0.0,0.0,60,0.00,CLR,OVC,0.00,WeatherDisplay:10.37,2013-11-20 22:14:00,
2013-11-20 17:19:00,44.0,31.4,29.67,ENE,67,0.0,0.0,61,0.00,CLR,OVC,0.00,WeatherDisplay:10.37,2013-11-20 22:19:00,
2013-11-20 17:24:00,44.0,31.8,29.68,ENE,67,0.0,0.0,62,0.00,CLR,OVC,0.00,WeatherDisplay:10.37,2013-11-20 22:24:00,
2013-11-20 17:29:00,44.0,31.8,29.68,ENE,67,0.0,0.0,62,0.00,CLR,OVC,0.00,WeatherDisplay:10.37,2013-11-20 22:29:00,
2013-11-20 17:34:00,44.0,32.2,29.68,ENE,67,0.0,0.0,63,0.00,CLR,OVC,0.00,WeatherDisplay:10.37,2013-11-20 22:34:00,
2013-11-20 17:39:00,43.0,31.3,29.68,ENE,67,0.0,0.0,63,0.00,CLR,OVC,0.00,WeatherDisplay:10.37,2013-11-20 22:39:00,
2013-11-20 17:45:00,43.0,31.6,29.68,ENE,67,0.0,0.0,64,0.00,CLR,OVC,0.00,WeatherDisplay:10.37,2013-11-20 22:45:00,
2013-11-20 17:50:00,43.0,32.0,29.68,ENE,67,0.0,0.0,65,0.00,CLR,OVC,0.00,WeatherDisplay:10.37,2013-11-20 22:50:00,
2013-11-20 17:55:00,43.0,32.0,29.68,ENE,67,0.0,0.0,65,0.00,CLR,OVC,0.00,WeatherDisplay:10.37,2013-11-20 22:55:00,
2013-11-20 18:00:00,43.0,32.4,29.68,ENE,67,0.0,0.0,66,0.00,CLR,OVC,0.00,WeatherDisplay:10.37,2013-11-20 23:00:00,
2013-11-20 18:05:00,42.0,31.1,29.68,ENE,67,0.0,0.0,65,0.00,CLR,OVC,0.00,WeatherDisplay:10.37,2013-11-20 23:05:00,
2013-11-20 18:10:00,42.0,31.1,29.68,ENE,67,0.0,0.0,65,0.00,CLR,OVC,0.00,WeatherDisplay:10.37,2013-11-20 23:10:00,
2013-11-20 18:15:00,42.0,31.1,29.68,ENE,67,0.0,0.0,65,0.00,CLR,OVC,0.00,WeatherDisplay:10.37,2013-11-20 23:15:00,
2013-11-20 18:20:00,42.0,31.5,29.68,ENE,67,0.0,0.0,66,0.00,CLR,OVC,0.00,WeatherDisplay:10.37,2013-11-20 23:20:00,
2013-11-20 18:25:00,42.0,31.5,29.68,ENE,67,0.0,0.0,66,0.00,CLR,OVC,0.00,WeatherDisplay:10.37,2013-11-20 23:25:00,
2013-11-20 18:30:00,42.0,31.5,29.68,ENE,67,0.0,0.0,66,0.00,CLR,OVC,0.00,WeatherDisplay:10.37,2013-11-20 23:30:00,
2013-11-20 18:35:00,42.0,31.5,29.68,ENE,67,0.0,0.0,66,0.00,CLR,OVC,0.00,WeatherDisplay:10.37,2013-11-20 23:35:00,
2013-11-20 18:40:00,42.0,31.8,29.68,ENE,67,0.0,0.0,67,0.00,CLR,OVC,0.00,WeatherDisplay:10.37,2013-11-20 23:40:00,
2013-11-20 18:45:00,42.0,31.8,29.68,ENE,67,0.0,0.0,67,0.00,CLR,OVC,0.00,WeatherDisplay:10.37,2013-11-20 23:45:00,
2013-11-20 18:50:00,42.0,32.2,29.68,ENE,67,0.0,0.0,68,0.00,CLR,OVC,0.00,WeatherDisplay:10.37,2013-11-20 23:50:00,
2013-11-20 18:55:00,42.0,32.2,29.68,ENE,67,0.0,0.0,68,0.00,CLR,OVC,0.00,WeatherDisplay:10.37,2013-11-20 23:55:00,
2013-11-20 19:00:00,41.0,31.2,29.68,ENE,67,0.0,0.0,68,0.00,CLR,OVC,0.00,WeatherDisplay:10.37,2013-11-21 00:00:00,
2013-11-20 19:05:00,41.0,31.6,29.68,ENE,67,0.0,0.0,69,0.00,CLR,OVC,0.00,WeatherDisplay:10.37,2013-11-21 00:05:00,
2013-11-20 19:10:00,41.0,32.0,29.68,ENE,67,0.0,0.0,70,0.00,CLR,OVC,0.00,WeatherDisplay:10.37,2013-11-21 00:10:00,
2013-11-20 19:15:00,41.0,32.3,29.69,ENE,67,0.0,0.0,71,0.00,CLR,OVC,0.00,WeatherDisplay:10.37,2013-11-21 00:15:00,
2013-11-20 19:20:00,41.0,32.3,29.69,ENE,67,0.0,0.0,71,0.00,CLR,OVC,0.00,WeatherDisplay:10.37,2013-11-21 00:20:00,
2013-11-20 19:25:00,41.0,32.7,29.69,ENE,67,0.0,0.0,72,0.00,CLR,OVC,0.00,WeatherDisplay:10.37,2013-11-21 00:25:00,
2013-11-20 19:30:00,41.0,32.7,29.69,East,90,0.0,0.0,72,0.00,CLR,OVC,0.00,WeatherDisplay:10.37,2013-11-21 00:30:00,
2013-11-20 19:35:00,41.0,33.0,29.69,East,90,0.0,0.0,73,0.00,CLR,OVC,0.00,WeatherDisplay:10.37,2013-11-21 00:35:00,
2013-11-20 19:40:00,41.0,33.0,29.69,East,90,0.0,0.0,73,0.00,CLR,OVC,0.00,WeatherDisplay:10.37,2013-11-21 00:40:00,
2013-11-20 19:45:00,42.0,34.3,29.69,East,90,0.0,0.0,74,0.00,CLR,OVC,0.00,WeatherDisplay:10.37,2013-11-21 00:45:00,
2013-11-20 19:50:00,42.0,34.3,29.69,ENE,67,0.0,0.0,74,0.00,CLR,OVC,0.00,WeatherDisplay:10.37,2013-11-21 00:50:00,
2013-11-20 19:55:00,42.0,34.3,29.69,East,90,0.0,0.0,74,0.00,CLR,OVC,0.00,WeatherDisplay:10.37,2013-11-21 00:55:00,
2013-11-20 20:00:00,42.0,34.6,29.69,ESE,112,0.0,0.0,75,0.00,CLR,OVC,0.00,WeatherDisplay:10.37,2013-11-21 01:00:00,
2013-11-20 20:05:00,42.0,34.6,29.70,ENE,67,0.0,0.0,75,0.00,CLR,OVC,0.00,WeatherDisplay:10.37,2013-11-21 01:05:00,
2013-11-20 20:10:00,42.0,35.0,29.70,East,90,0.0,0.0,76,0.00,CLR,OVC,0.00,WeatherDisplay:10.37,2013-11-21 01:10:00,
2013-11-20 20:15:00,42.0,35.3,29.70,NE,45,0.0,0.0,77,0.00,CLR,OVC,0.00,WeatherDisplay:10.37,2013-11-21 01:15:00,
2013-11-20 20:20:00,42.0,35.6,29.70,SE,135,0.0,0.0,78,0.00,CLR,OVC,0.00,WeatherDisplay:10.37,2013-11-21 01:20:00,
2013-11-20 20:25:00,42.0,36.3,29.71,SE,135,0.0,0.0,80,0.00,CLR,OVC,0.00,WeatherDisplay:10.37,2013-11-21 01:25:00,
2013-11-20 20:30:00,42.0,36.6,29.71,SE,135,2.0,2.0,81,0.00,CLR,OVC,0.00,WeatherDisplay:10.37,2013-11-21 01:30:00,
2013-11-20 20:35:00,42.0,36.6,29.71,ENE,67,0.0,0.0,81,0.00,CLR,OVC,0.00,WeatherDisplay:10.37,2013-11-21 01:35:00,
2013-11-20 20:40:00,42.0,36.6,29.71,SE,135,0.0,0.0,81,0.00,CLR,OVC,0.00,WeatherDisplay:10.37,2013-11-21 01:40:00,
2013-11-20 20:45:00,42.0,36.6,29.71,SE,135,0.0,0.0,81,0.00,CLR,OVC,0.00,WeatherDisplay:10.37,2013-11-21 01:45:00,
2013-11-20 20:50:00,42.0,36.9,29.71,SE,135,0.0,0.0,82,0.00,CLR,OVC,0.00,WeatherDisplay:10.37,2013-11-21 01:50:00,
2013-11-20 20:55:00,42.0,37.2,29.72,East,90,0.0,0.0,83,0.00,CLR,OVC,0.00,WeatherDisplay:10.37,2013-11-21 01:55:00,
2013-11-20 21:00:00,42.0,37.2,29.72,ESE,112,1.2,0.0,83,0.00,CLR,OVC,0.00,WeatherDisplay:10.37,2013-11-21 02:00:00,
2013-11-20 21:05:00,42.0,37.5,29.72,ESE,112,0.0,0.0,84,0.00,CLR,OVC,0.00,WeatherDisplay:10.37,2013-11-21 02:05:00,
2013-11-20 21:10:00,42.0,37.8,29.72,SE,135,0.0,0.0,85,0.00,CLR,OVC,0.00,WeatherDisplay:10.37,2013-11-21 02:10:00,
2013-11-20 21:15:00,42.0,38.1,29.72,ESE,112,0.0,0.0,86,0.00,CLR,OVC,0.00,WeatherDisplay:10.37,2013-11-21 02:15:00,
2013-11-20 21:20:00,42.0,38.7,29.72,East,90,1.2,1.2,88,0.00,CLR,OVC,0.00,WeatherDisplay:10.37,2013-11-21 02:20:00,
2013-11-20 21:25:00,41.0,38.0,29.71,ENE,67,0.0,0.0,89,0.00,CLR,OVC,0.00,WeatherDisplay:10.37,2013-11-21 02:25:00,
2013-11-20 21:30:00,41.0,38.9,29.71,ENE,67,0.0,0.0,92,0.00,CLR,OVC,0.00,WeatherDisplay:10.37,2013-11-21 02:30:00,
2013-11-20 21:35:00,41.0,38.9,29.71,ESE,112,0.0,0.0,92,0.00,CLR,OVC,0.00,WeatherDisplay:10.37,2013-11-21 02:35:00,
2013-11-20 21:40:00,41.0,39.4,29.71,ENE,67,1.2,0.0,94,0.00,CLR,OVC,0.00,WeatherDisplay:10.37,2013-11-21 02:40:00,
2013-11-20 21:45:00,41.0,39.4,29.71,ESE,112,1.2,1.2,94,0.00,CLR,OVC,0.00,WeatherDisplay:10.37,2013-11-21 02:45:00,
2013-11-20 21:50:00,41.0,39.7,29.71,ESE,112,0.0,0.0,95,0.00,CLR,OVC,0.00,WeatherDisplay:10.37,2013-11-21 02:50:00,
2013-11-20 21:55:00,40.0,38.7,29.71,ESE,112,0.0,0.0,95,0.00,CLR,OVC,0.00,WeatherDisplay:10.37,2013-11-21 02:55:00,
2013-11-20 22:00:00,40.0,39.2,29.71,ESE,112,0.0,0.0,97,0.00,CLR,OVC,0.00,WeatherDisplay:10.37,2013-11-21 03:00:00,
2013-11-20 22:05:00,40.0,39.7,29.72,ESE,112,0.0,0.0,99,0.00,CLR,OVC,0.00,WeatherDisplay:10.37,2013-11-21 03:05:00,
2013-11-20 22:10:00,40.0,40.0,29.72,ESE,112,0.0,0.0,100,0.00,,OVC,0.00,WeatherDisplay:10.37,2013-11-21 03:10:00,
2013-11-20 22:15:00,40.0,40.0,29.71,ESE,112,0.0,0.0,100,0.00,,OVC,0.00,WeatherDisplay:10.37,2013-11-21 03:15:00,
2013-11-20 22:20:00,40.0,40.0,29.71,ESE,112,0.0,0.0,100,0.00,,OVC,0.00,WeatherDisplay:10.37,2013-11-21 03:20:00,
2013-11-20 22:25:00,40.0,40.0,29.71,ENE,67,0.0,0.1,100,0.00,,OVC,0.00,WeatherDisplay:10.37,2013-11-21 03:25:00,
2013-11-20 22:30:00,40.0,40.0,29.71,ENE,67,0.0,0.0,100,0.00,,OVC,0.00,WeatherDisplay:10.37,2013-11-21 03:30:00,
2013-11-20 22:36:00,39.0,39.0,29.71,ENE,67,0.0,0.0,100,0.00,,OVC,0.00,WeatherDisplay:10.37,2013-11-21 03:36:00,
2013-11-20 22:41:00,39.0,39.0,29.71,ENE,67,0.0,0.0,100,0.00,,OVC,0.00,WeatherDisplay:10.37,2013-11-21 03:41:00,
2013-11-20 22:46:00,39.0,39.0,29.71,ENE,67,0.0,0.0,100,0.00,,OVC,0.00,WeatherDisplay:10.37,2013-11-21 03:46:00,
2013-11-20 22:51:00,39.0,39.0,29.71,ENE,67,0.0,0.0,100,0.00,,OVC,0.00,WeatherDisplay:10.37,2013-11-21 03:51:00,
2013-11-20 22:56:00,39.0,39.0,29.72,ENE,67,0.0,0.0,100,0.00,,OVC,0.00,WeatherDisplay:10.37,2013-11-21 03:56:00,
2013-11-20 23:01:00,39.0,39.0,29.72,ENE,67,0.0,0.0,100,0.00,,OVC,0.00,WeatherDisplay:10.37,2013-11-21 04:01:00,
2013-11-20 23:06:00,39.0,39.0,29.71,ENE,67,0.0,0.0,100,0.00,,OVC,0.00,WeatherDisplay:10.37,2013-11-21 04:06:00,
2013-11-20 23:11:00,39.0,39.0,29.71,ENE,67,0.0,0.0,100,0.00,,OVC,0.00,WeatherDisplay:10.37,2013-11-21 04:11:00,
2013-11-20 23:16:00,39.0,39.0,29.71,ENE,67,0.0,0.0,100,0.00,,OVC,0.00,WeatherDisplay:10.37,2013-11-21 04:16:00,
2013-11-20 23:21:00,39.0,39.0,29.71,ENE,67,0.0,0.0,100,0.00,,OVC,0.00,WeatherDisplay:10.37,2013-11-21 04:21:00,
2013-11-20 23:26:00,38.0,38.0,29.72,ENE,67,0.0,0.0,100,0.00,,OVC,0.00,WeatherDisplay:10.37,2013-11-21 04:26:00,
2013-11-20 23:31:00,38.0,38.0,29.72,ENE,67,0.0,0.0,100,0.00,,OVC,0.00,WeatherDisplay:10.37,2013-11-21 04:31:00,
2013-11-20 23:36:00,38.0,38.0,29.72,ENE,67,0.0,0.0,100,0.00,,OVC,0.00,WeatherDisplay:10.37,2013-11-21 04:36:00,
2013-11-20 23:41:00,38.0,38.0,29.72,ENE,67,0.0,0.0,100,0.00,,OVC,0.00,WeatherDisplay:10.37,2013-11-21 04:41:00,
2013-11-20 23:46:00,38.0,38.0,29.72,ENE,67,0.0,0.0,100,0.00,,OVC,0.00,WeatherDisplay:10.37,2013-11-21 04:46:00,
2013-11-20 23:51:00,37.0,37.0,29.72,ENE,67,0.0,0.0,100,0.00,,OVC,0.00,WeatherDisplay:10.37,2013-11-21 04:51:00,
2013-11-20 23:56:00,37.0,37.0,29.72,ENE,67,0.0,0.0,100,0.00,,OVC,0.00,WeatherDisplay:10.37,2013-11-21 04:56:00,